| time (UTC) | temp F | wind direction | speed MPH | gust MPH | rain 1hr in | rain 24hr in | rain mn in | humidity % | barometer mb |
| 20260509003419 | 70 | 317 | 2.0 | 0.0 | 0.00 | 0.00 | 0.00 | 48 | 1019.8 |
| 20260509002418 | 70 | 342 | 0.0 | 0.0 | 0.00 | 0.00 | 0.00 | 48 | 1019.9 |
| 20260509000417 | 72 | 342 | 0.0 | 0.0 | 0.00 | 0.00 | 0.00 | 45 | 1020.0 |
| 20260508235415 | 73 | 302 | 0.0 | 0.0 | 0.00 | 0.00 | 0.00 | 43 | 1020.1 |
| 20260508234414 | 73 | 300 | 0.0 | 0.0 | 0.00 | 0.00 | 0.00 | 43 | 1020.0 |
| 20260508233412 | 73 | 219 | 0.0 | 0.0 | 0.00 | 0.00 | 0.00 | 44 | 1020.1 |
| 20260508232412 | 74 | 223 | 0.0 | 0.0 | 0.00 | 0.00 | 0.00 | 44 | 1020.1 |
| 20260508231410 | 74 | 257 | 0.0 | 0.0 | 0.00 | 0.00 | 0.00 | 44 | 1020.1 |
| 20260508230409 | 73 | 222 | 0.0 | 0.0 | 0.00 | 0.00 | 0.00 | 44 | 1020.1 |
| 20260508225409 | 73 | 228 | 0.0 | 0.0 | 0.00 | 0.00 | 0.00 | 44 | 1020.1 |
| 20260508223406 | 72 | 213 | 0.0 | 0.0 | 0.00 | 0.00 | 0.00 | 44 | 1020.2 |
| 20260508222405 | 72 | 240 | 0.0 | 0.0 | 0.00 | 0.00 | 0.00 | 44 | 1020.3 |
| 20260508221404 | 72 | 304 | 0.0 | 0.0 | 0.00 | 0.00 | 0.00 | 45 | 1020.4 |
| 20260508220404 | 72 | 209 | 0.0 | 0.0 | 0.00 | 0.00 | 0.00 | 45 | 1020.3 |
| 20260508214402 | 71 | 328 | 3.0 | 0.0 | 0.00 | 0.00 | 0.00 | 46 | 1020.5 |
| 20260508212359 | 71 | 213 | 3.0 | 0.0 | 0.00 | 0.00 | 0.00 | 46 | 1020.6 |
| 20260508211358 | 71 | 251 | 1.0 | 0.0 | 0.00 | 0.00 | 0.00 | 48 | 1020.6 |
| 20260508210357 | 70 | 166 | 0.0 | 0.0 | 0.00 | 0.00 | 0.00 | 48 | 1020.5 |
| 20260508205356 | 69 | 146 | 5.0 | 0.0 | 0.00 | 0.00 | 0.00 | 49 | 1020.6 |
| 20260508204355 | 69 | 201 | 0.0 | 0.0 | 0.00 | 0.00 | 0.00 | 47 | 1020.6 |
| 20260508203354 | 68 | 216 | 0.0 | 0.0 | 0.00 | 0.00 | 0.00 | 51 | 1020.7 |
| 20260508202353 | 68 | 233 | 0.0 | 0.0 | 0.00 | 0.00 | 0.00 | 50 | 1020.6 |
| 20260508201352 | 67 | 260 | 1.0 | 0.0 | 0.00 | 0.00 | 0.00 | 52 | 1020.7 |
| 20260508200351 | 67 | 271 | 0.0 | 0.0 | 0.00 | 0.00 | 0.00 | 51 | 1020.8 |
| 20260508195350 | 66 | 221 | 0.0 | 0.0 | 0.00 | 0.00 | 0.00 | 52 | 1020.9 |
| 20260508194349 | 66 | 185 | 0.0 | 0.0 | 0.00 | 0.00 | 0.00 | 52 | 1021.0 |
| 20260508193348 | 64 | 161 | 0.0 | 0.0 | 0.00 | 0.00 | 0.00 | 56 | 1020.9 |
| 20260508192347 | 63 | 220 | 4.0 | 0.0 | 0.00 | 0.00 | 0.00 | 57 | 1020.8 |
| 20260508191346 | 62 | 274 | 0.0 | 0.0 | 0.00 | 0.00 | 0.00 | 57 | 1021.0 |
| 20260508190345 | 62 | 250 | 3.0 | 0.0 | 0.00 | 0.00 | 0.00 | 58 | 1021.1 |
| 20260508185344 | 61 | 244 | 0.0 | 0.0 | 0.00 | 0.00 | 0.00 | 59 | 1021.1 |
| 20260508184343 | 61 | 246 | 1.0 | 0.0 | 0.00 | 0.00 | 0.00 | 61 | 1021.1 |
| 20260508183342 | 62 | 207 | 0.0 | 0.0 | 0.00 | 0.00 | 0.00 | 57 | 1021.0 |
| 20260508182341 | 61 | 228 | 6.0 | 0.0 | 0.00 | 0.00 | 0.00 | 62 | 1021.1 |
| 20260508181340 | 60 | 226 | 0.0 | 0.0 | 0.00 | 0.00 | 0.00 | 61 | 1021.0 |
| 20260508180339 | 58 | 234 | 0.0 | 0.0 | 0.00 | 0.00 | 0.00 | 68 | 1020.9 |
| 20260508175338 | 58 | 211 | 0.0 | 0.0 | 0.00 | 0.00 | 0.00 | 66 | 1020.9 |
| 20260508174337 | 58 | 211 | 0.0 | 0.0 | 0.00 | 0.00 | 0.00 | 68 | 1020.8 |
| 20260508173336 | 57 | 323 | 0.0 | 0.0 | 0.00 | 0.00 | 0.00 | 71 | 1020.7 |
| 20260508172335 | 57 | 188 | 0.0 | 0.0 | 0.00 | 0.00 | 0.00 | 70 | 1020.6 |
| 20260508171334 | 57 | 188 | 0.0 | 0.0 | 0.00 | 0.00 | 0.00 | 70 | 1020.5 |
| 20260508170333 | 56 | 188 | 0.0 | 0.0 | 0.00 | 0.00 | 0.00 | 73 | 1020.4 |
| 20260508165333 | 56 | 188 | 0.0 | 0.0 | 0.00 | 0.00 | 0.00 | 73 | 1020.3 |
| 20260508163330 | 55 | 188 | 0.0 | 0.0 | 0.00 | 0.00 | 0.00 | 73 | 1020.0 |
| 20260508162329 | 55 | 188 | 0.0 | 0.0 | 0.00 | 0.00 | 0.00 | 75 | 1020.0 |
| 20260508161328 | 54 | 188 | 0.0 | 0.0 | 0.00 | 0.00 | 0.00 | 75 | 1020.0 |
| 20260508160327 | 54 | 182 | 1.0 | 0.0 | 0.00 | 0.00 | 0.00 | 75 | 1019.9 |
| 20260508154325 | 53 | 211 | 2.0 | 0.0 | 0.00 | 0.00 | 0.00 | 77 | 1019.9 |
| 20260508152323 | 53 | 140 | 4.0 | 0.0 | 0.00 | 0.00 | 0.00 | 78 | 1019.9 |
| 20260508151322 | 52 | 178 | 0.0 | 0.0 | 0.00 | 0.00 | 0.00 | 79 | 1019.9 |
| 20260508150321 | 52 | 144 | 0.0 | 0.0 | 0.00 | 0.00 | 0.00 | 79 | 1020.0 |
| 20260508145319 | 52 | 144 | 0.0 | 0.0 | 0.00 | 0.00 | 0.00 | 79 | 1020.0 |
| 20260508144319 | 52 | 184 | 0.0 | 0.0 | 0.00 | 0.00 | 0.00 | 79 | 1020.1 |
| 20260508143318 | 52 | 186 | 0.0 | 0.0 | 0.00 | 0.00 | 0.00 | 78 | 1020.0 |
| 20260508142317 | 51 | 257 | 0.0 | 0.0 | 0.00 | 0.00 | 0.00 | 79 | 1020.0 |
| 20260508141315 | 51 | 252 | 3.0 | 0.0 | 0.00 | 0.00 | 0.00 | 80 | 1019.8 |
| 20260508135314 | 51 | 156 | 0.0 | 0.0 | 0.00 | 0.00 | 0.00 | 79 | 1019.4 |
| 20260508134313 | 51 | 121 | 0.0 | 0.0 | 0.00 | 0.00 | 0.00 | 78 | 1019.2 |
| 20260508133311 | 51 | 121 | 0.0 | 0.0 | 0.00 | 0.00 | 0.00 | 78 | 1018.9 |
| 20260508132310 | 51 | 18 | 0.0 | 0.0 | 0.00 | 0.00 | 0.00 | 79 | 1018.7 |
| 20260508131309 | 51 | 18 | 0.0 | 0.0 | 0.00 | 0.00 | 0.00 | 77 | 1018.5 |
| 20260508130309 | 52 | 18 | 0.0 | 0.0 | 0.00 | 0.00 | 0.00 | 76 | 1018.3 |
| 20260508125308 | 52 | 18 | 0.0 | 0.0 | 0.00 | 0.00 | 0.00 | 78 | 1018.0 |
| 20260508124306 | 52 | 18 | 0.0 | 0.0 | 0.00 | 0.00 | 0.00 | 78 | 1018.0 |
| 20260508123306 | 52 | 18 | 0.0 | 0.0 | 0.00 | 0.00 | 0.00 | 79 | 1017.8 |
| 20260508122307 | 52 | 18 | 0.0 | 0.0 | 0.00 | 0.00 | 0.00 | 79 | 1017.8 |
| 20260508120302 | 52 | 319 | 0.0 | 0.0 | 0.00 | 0.00 | 0.00 | 79 | 1017.7 |
| 20260508115301 | 53 | 319 | 0.0 | 0.0 | 0.00 | 0.00 | 0.00 | 79 | 1017.7 |
| 20260508114300 | 53 | 319 | 0.0 | 0.0 | 0.00 | 0.00 | 0.00 | 80 | 1017.5 |
| 20260508113300 | 53 | 319 | 0.0 | 0.0 | 0.00 | 0.00 | 0.00 | 80 | 1017.4 |
| 20260508112258 | 53 | 319 | 0.0 | 0.0 | 0.00 | 0.00 | 0.00 | 81 | 1017.2 |
| 20260508111257 | 53 | 319 | 0.0 | 0.0 | 0.00 | 0.00 | 0.00 | 81 | 1017.1 |
| 20260508110256 | 53 | 319 | 0.0 | 0.0 | 0.00 | 0.00 | 0.00 | 81 | 1017.0 |
| 20260508105255 | 53 | 319 | 0.0 | 0.0 | 0.00 | 0.00 | 0.00 | 81 | 1016.8 |
| 20260508103253 | 53 | 319 | 0.0 | 0.0 | 0.00 | 0.00 | 0.00 | 81 | 1016.7 |
| 20260508102252 | 53 | 319 | 0.0 | 0.0 | 0.00 | 0.00 | 0.00 | 81 | 1016.6 |
| 20260508101251 | 53 | 319 | 0.0 | 0.0 | 0.00 | 0.00 | 0.00 | 81 | 1016.6 |
| 20260508100250 | 53 | 319 | 0.0 | 0.0 | 0.00 | 0.00 | 0.00 | 80 | 1016.5 |
| 20260508095249 | 53 | 319 | 0.0 | 0.0 | 0.00 | 0.00 | 0.00 | 80 | 1016.4 |
| 20260508093247 | 53 | 319 | 0.0 | 0.0 | 0.00 | 0.00 | 0.00 | 79 | 1016.2 |
| 20260508092246 | 53 | 319 | 0.0 | 0.0 | 0.00 | 0.00 | 0.00 | 78 | 1016.1 |
| 20260508090244 | 54 | 319 | 0.0 | 0.0 | 0.00 | 0.00 | 0.00 | 77 | 1016.0 |
| 20260508085243 | 54 | 319 | 0.0 | 0.0 | 0.00 | 0.00 | 0.00 | 76 | 1015.9 |
| 20260508084242 | 54 | 319 | 0.0 | 0.0 | 0.00 | 0.00 | 0.00 | 75 | 1015.8 |
| 20260508083241 | 55 | 319 | 0.0 | 0.0 | 0.00 | 0.00 | 0.00 | 74 | 1015.8 |
| 20260508082240 | 55 | 319 | 0.0 | 0.0 | 0.00 | 0.00 | 0.00 | 73 | 1015.8 |
| 20260508081239 | 55 | 319 | 0.0 | 0.0 | 0.00 | 0.00 | 0.00 | 72 | 1015.8 |
| 20260508080238 | 56 | 319 | 0.0 | 0.0 | 0.00 | 0.00 | 0.00 | 72 | 1015.6 |
| 20260508075237 | 56 | 319 | 0.0 | 0.0 | 0.00 | 0.00 | 0.00 | 71 | 1015.6 |
| 20260508074236 | 56 | 319 | 0.0 | 0.0 | 0.00 | 0.00 | 0.00 | 70 | 1015.6 |
| 20260508073235 | 56 | 319 | 0.0 | 0.0 | 0.00 | 0.00 | 0.00 | 69 | 1015.6 |
| 20260508072234 | 57 | 319 | 0.0 | 0.0 | 0.00 | 0.00 | 0.00 | 67 | 1015.6 |
| 20260508071233 | 58 | 319 | 0.0 | 0.0 | 0.00 | 0.00 | 0.00 | 67 | 1015.5 |
| 20260508070232 | 58 | 319 | 0.0 | 0.0 | 0.00 | 0.00 | 0.00 | 66 | 1015.5 |
| 20260508065231 | 58 | 319 | 0.0 | 0.0 | 0.00 | 0.00 | 0.00 | 65 | 1015.6 |
| 20260508064230 | 59 | 319 | 0.0 | 0.0 | 0.00 | 0.00 | 0.00 | 63 | 1015.5 |
| 20260508063229 | 59 | 319 | 0.0 | 0.0 | 0.00 | 0.00 | 0.00 | 63 | 1015.4 |
| 20260508062228 | 60 | 319 | 0.0 | 0.0 | 0.00 | 0.00 | 0.00 | 61 | 1015.4 |
| 20260508061227 | 60 | 319 | 0.0 | 0.0 | 0.00 | 0.00 | 0.00 | 61 | 1015.5 |
| 20260508060226 | 60 | 319 | 0.0 | 0.0 | 0.00 | 0.00 | 0.00 | 61 | 1015.5 |
| 20260508055225 | 60 | 319 | 0.0 | 0.0 | 0.00 | 0.00 | 0.00 | 61 | 1015.5 |
| 20260508054224 | 60 | 319 | 0.0 | 0.0 | 0.00 | 0.00 | 0.00 | 62 | 1015.4 |
| 20260508051221 | 61 | 319 | 0.0 | 0.0 | 0.00 | 0.00 | 0.00 | 63 | 1015.3 |
| 20260508050220 | 61 | 319 | 0.0 | 0.0 | 0.00 | 0.00 | 0.00 | 63 | 1015.3 |
| 20260508045219 | 62 | 319 | 0.0 | 0.0 | 0.00 | 0.00 | 0.00 | 61 | 1015.3 |
| 20260508044218 | 62 | 319 | 0.0 | 0.0 | 0.00 | 0.00 | 0.00 | 60 | 1015.3 |
| 20260508043217 | 63 | 319 | 0.0 | 0.0 | 0.00 | 0.00 | 0.00 | 58 | 1015.2 |
| 20260508042216 | 64 | 319 | 0.0 | 0.0 | 0.00 | 0.00 | 0.00 | 56 | 1015.2 |
| 20260508041215 | 65 | 319 | 0.0 | 0.0 | 0.00 | 0.00 | 0.00 | 56 | 1015.2 |
| 20260508040214 | 65 | 319 | 0.0 | 0.0 | 0.00 | 0.00 | 0.00 | 56 | 1015.1 |
| 20260508035213 | 66 | 319 | 0.0 | 0.0 | 0.00 | 0.00 | 0.00 | 52 | 1014.9 |
| 20260508034212 | 66 | 319 | 0.0 | 0.0 | 0.00 | 0.00 | 0.00 | 51 | 1014.8 |
| 20260508033211 | 67 | 319 | 2.0 | 0.0 | 0.00 | 0.00 | 0.00 | 48 | 1014.7 |
| 20260508032210 | 67 | 319 | 0.0 | 0.0 | 0.00 | 0.00 | 0.00 | 47 | 1014.6 |
| 20260508031208 | 68 | 319 | 0.0 | 0.0 | 0.00 | 0.00 | 0.00 | 45 | 1014.5 |
| 20260508030208 | 68 | 319 | 0.0 | 0.0 | 0.00 | 0.00 | 0.00 | 44 | 1014.4 |
| 20260508025206 | 69 | 319 | 0.0 | 0.0 | 0.00 | 0.00 | 0.00 | 44 | 1014.4 |
| 20260508023205 | 69 | 319 | 0.0 | 0.0 | 0.00 | 0.00 | 0.00 | 43 | 1014.5 |
| 20260508022204 | 70 | 319 | 0.0 | 0.0 | 0.00 | 0.00 | 0.00 | 42 | 1014.5 |
| 20260508021203 | 70 | 319 | 0.0 | 0.0 | 0.00 | 0.00 | 0.00 | 41 | 1014.4 |
| 20260508015200 | 70 | 319 | 0.0 | 0.0 | 0.00 | 0.00 | 0.00 | 40 | 1014.7 |
| 20260508014200 | 71 | 319 | 0.0 | 0.0 | 0.00 | 0.00 | 0.00 | 43 | 1014.8 |
| 20260508013158 | 71 | 345 | 0.0 | 0.0 | 0.00 | 0.00 | 0.00 | 43 | 1014.8 |
| 20260508012158 | 71 | 346 | 0.0 | 0.0 | 0.00 | 0.00 | 0.00 | 42 | 1014.9 |
| 20260508004153 | 73 | 92 | 0.0 | 0.0 | 0.00 | 0.00 | 0.00 | 36 | 1015.2 |